Regional Weather Roundup
Issued by NWS

Home | Current Version | Previous Version | Graphics & Text | Print | Product List | Glossary Off
Versions: 1 2 3 4 5 6 7 8 9 10 11 12 13 14 15 16 17 18 19 20 21 22 23 24 25 26 27 28 29 30 31 32 33 34 35 36 37 38 39 40 41 42 43 44 45 46 47 48 49 50

000
ASUS43 KMKX 200211
RWRWI

WISCONSIN REGIONAL WEATHER ROUNDUP
NATIONAL WEATHER SERVICE MILWAUKEE/SULLIVAN WI
900 PM CDT FRI SEP 19 2014

NOTE: "FAIR" INDICATES FEW OR NO CLOUDS BELOW 12,000 FEET WITH NO
SIGNIFICANT WEATHER AND/OR OBSTRUCTIONS TO VISIBILITY.

WIZ001-002-006>008-014>016-023>028-200300-
NORTHWEST WISCONSIN

CITY           SKY/WX    TMP DP  RH WIND       PRES   REMARKS
SUPERIOR ARPT  FOG       55  55  99 CALM      29.64R VSB 1/4
ASHLAND        CLOUDY    66  59  78 SW7       29.66R
HAYWARD        CLOUDY    64  61  90 S3        29.68F
SIREN          MOCLDY    64  62  94 CALM      29.67S
RICE LAKE      CLOUDY    69  61  76 S9        29.70S
LADYSMITH      CLOUDY    67  58  72 S9        29.73R
EAU CLAIRE     CLOUDY    72  59  63 S13       29.71F
MENOMONIE      CLOUDY    73  61  66 S12G18    29.70S
NEW RICHMOND   CLOUDY    66  65  96 CALM      29.68S
OSCEOLA        CLOUDY    65  65 100 SE3       29.68F
$$

WIZ003>005-009-010-017-018-200300-
NORTH CENTRAL WISCONSIN

CITY           SKY/WX    TMP DP  RH WIND       PRES   REMARKS
WOODRUFF       CLOUDY    65  55  69 SW14G21   29.72R
RHINELANDER    CLOUDY    64  53  67 SW12G25   29.75F
EAGLE RIVER    CLOUDY    65  52  62 SW12G20   29.72R
LAND O LAKES   CLOUDY    65  54  66 SW10G16   29.73R
PHILLIPS       CLOUDY    65  57  75 S14       29.72R
TOMAHAWK       CLOUDY    64  54  70 S6        29.75S
MEDFORD        CLOUDY    64  55  71 S10G17    29.76F
MERRILL        CLOUDY    65  55  69 S10       29.76F
$$

WIZ029-030-035-036-043>047-200300-
CENTRAL WISCONSIN

CITY           SKY/WX    TMP DP  RH WIND       PRES   REMARKS
WAUSAU         MOCLDY    66  53  63 S14G23    29.77F
MOSINEE        CLEAR     64  55  72 S13G18    29.80F
MARSHFIELD     MOCLDY    66  54  65 S13       29.79F
STEVENS POINT  MOCLDY    64  51  63 S9        29.82F
WAUPACA        MOCLDY    68  51  54 S8        29.83F
WAUTOMA        MOCLDY    67  52  58 SW7       29.84R
WISC RAPIDS    CLOUDY    66  53  63 S6        29.83F
CAMP DOUGLAS   PTCLDY    66  55  68 S3        29.82F
$$

WIZ011>013-019>022-031-037>040-048>050-200300-
NORTHEAST WISCONSIN

CITY           SKY/WX    TMP DP  RH WIND       PRES   REMARKS
ANTIGO         MOCLDY    63  53  70 S14       29.79F
STURGEON BAY   CLOUDY    63  52  67 S14G20    29.85R
GREEN BAY      CLOUDY    67  51  56 SW9       29.83R
MANITOWOC      PTCLDY    61  53  75 S10       29.86F
APPLETON       MOCLDY    66  48  52 S16G23    29.84S
CLINTONVILLE   MOCLDY    64  52  63 S5        29.83S
OSHKOSH        CLEAR     66  51  58 S14       29.83F
$$

WIZ032>034-041-042-053>061-200300-
SOUTHWEST WISCONSIN

CITY           SKY/WX    TMP DP  RH WIND       PRES   REMARKS
LA CROSSE      MOCLDY    71  58  63 S9        29.80S
SPARTA         PTCLDY    67  53  61 CALM      29.82F
VIROQUA        FAIR      64  55  72 S8        29.84F
BOSCOBEL       CLEAR     70  54  56 SW8       29.85R
PRAIRIE DU CHI CLEAR     70  54  56 S9G17     29.84R
PLATTEVILLE    FAIR      67  54  62 S13G21    29.88F
$$

WIZ056-057-062-063-064-067-068-200300-
SOUTH CENTRAL WISCONSIN

CITY           SKY/WX    TMP DP  RH WIND       PRES   REMARKS
BARABOO/DELLS  CLEAR     67  50  54 SW18G24   29.84S
LONE ROCK      CLEAR     72  52  49 SW8       29.86R
WATERTOWN      CLEAR     65  50  60 S8        29.89R
MADISON        PTCLDY    68  53  58 S14G22    29.86F
MIDDLETON      FAIR      69  51  53 S17G26    29.86F
MONROE         CLEAR     64  54  68 S20G28    29.89F
JANESVILLE     CLEAR     70  48  46 S15G21    29.91F
$$

WIZ051-052-058>065-066-070>072-200300-
SOUTHEAST WISCONSIN

CITY           SKY/WX    TMP DP  RH WIND       PRES   REMARKS
MILWAUKEE      MOCLDY    66  46  48 S13       29.90F
WAUKESHA       CLEAR     63  46  55 S12G17    29.91F
MILWAUKEE/TIMM CLEAR     66  45  45 S12G20    29.91F
RACINE         CLEAR     66  47  50 S12       29.94F
BURLINGTON     CLEAR     61  46  58 S7        29.92F
KENOSHA        CLEAR     64  48  56 S10       29.94F
FOND DU LAC    CLEAR     66  49  54 S20G29    29.84F
SHEBOYGAN      PTCLDY    62  50  64 S15       29.87S
WEST BEND      CLEAR     64  45  48 S9        29.90R
JUNEAU         CLEAR     65  50  58 S15       29.89R
$$

LSZ147-162-200300-
LAKE SUPERIOR

STATION/POSITION TIME  TEMP    WIND        PRES    WAVE
                       AIR SEA DIR/SP/G            HT/PER
                 (UTC) (F)     (DEG/KT/KT) (MB)    (FT/S)
W MID LAKE BUOY  0150   54 47  240/  8/  8 1003.4R   1/ 4
DEVILS ISLAND    0200   58     230/ 12/ 13 1003.6F
PORT WING        0100   57     270/  6/ 16 1004.4
SAXON HARBOR     0100   68     200/  5/  9 1003.7R
$$

LMZ867-665-643>646-200300-
LAKE MICHIGAN

STATION/POSITION TIME  TEMP    WIND        PRES    WAVE
                       AIR SEA DIR/SP/G            HT/PER
                 (UTC) (F)     (DEG/KT/KT) (MB)    (FT/S)
N MID LAKE BUOY  0150   62 58  200/ 25/ 31 1009.4R  10/ 8
NORTHPORT PIER   0100   62     160/ 10/ 24 1009.8R
SISTER BAY       0042          190/ 24/ 33   N/A
KEWAUNEE LAKESHO 0100   62     190/ 20/ 28 1010.2R
SHEBOYGAN LAKESH 0200   63 54  190/ 24/ 27 1011.5F
PORT WASHINGTON  0140   60     210/  6/ 13 1012.9S
ATWATER BUOY     0200   61     180/ 10/ 12 1013.5F
MILWAUKEE LAKESH 0100   63     180/ 11/ 14   N/A
S MID LAKE BUOY  0150   66 64  170/ 17/ 21 1014.5F   2/ 4
KENOSHA   LAKESH 0200   65     180/ 13/ 17 1013.2F
$$

TC  - TEMPERATURE IN CELSIUS
VSB - VISIBILITY IN STATUTE MILES
WCI - WIND CHILL INDEX
HX  - HEAT INDEX




USA.gov is the U.S. government's official web portal to all federal, state and local government web resources and services.